Find Starlink 31472

NORAD ID: 59730 Int'l Des: 2024-090 Owner: SPXS Country: US Constellation: starlink operational
LEOCIRCULAR

現在のビュー

3D地球を読み込み中...

About Starlink 31472

Starlink 31472 (NORAD 59730) is a starlink constellation satellite (v2 mini) launched May 13, 2024 by SPXS of US. It operates in LEO, CIRCULAR orbit with a mass of 730.00 kg.

Starlink 31472について

説明を読み込み中...

次回通過

Passes for default location (London). Set your location on the main map for personalized predictions.

高度履歴

Loading altitude history...

軌道要素

1 59730U 24090A 26190.26392877 .00001266 00000-0 55292-4 0 9993
2 59730 43.0037 216.8822 0001804 294.7211 65.3452 15.27732034122038
Epoch: Jul 9, 2026 • Age: 35 hours

現在のステータス

高度 482.6 km
遠地点 / 近地点 N/A
速度 7.63 km/s
衛星直下点 6.90°N, 171.41°W
打ち上げ日 May 13, 2024
運用期間 2.1 years
タイプ internet

技術仕様

分類 Payload
質量 730.00 kg
乾燥質量 700.00 kg
総質量 730.00 kg
長さ 0.30 m
直径 4.10 m
スパン 29.00 m
形状 Box + pan
製造者 SPXS
バスタイプ Starlink V2M
フェーズステータス In Orbit
所有者/国 SPXS/US

Most Searched